CW6538 Cattolica IT current weather conditions

sailwx.info

Wind from 265 at 2 knots gusting 6

Air temperature 13.9° C
Dewpoint 4.2° C

Last reported at 2015-Apr-01 06:48 UTC.
Time now 2015-Apr-01 08:03 UTC

Location: N 43°58' E 012°44'.
View on Google Maps.

See reports from other nearby stations

  
Tides and Currents Weather Stations Pressure Air Temp Water Temp Dewpoint Dewpoint Depression Visibility Wind Speed Wind Dir Waves Ship Positions
date/time (UTC)wind fromknots sea level pressurealtimeterstation pressurevisibilityair tempwater tempwave heightnotes
2015-Apr-01 06:48 265 2 gusting 6 13.9
2015-Apr-01 06:44 315 1 gusting 6 13.9
2015-Apr-01 06:38 252 0 gusting 5 13.3
2015-Apr-01 06:33 274 13.3
2015-Apr-01 06:28 250 13.3
2015-Apr-01 06:23 253 3 gusting 6 13.3
2015-Apr-01 06:18 259 3 gusting 6 12.8
2015-Apr-01 06:14 240 2 gusting 6 12.8
2015-Apr-01 06:08 269 1 gusting 6 12.8
2015-Apr-01 06:04 259 0 gusting 5 12.8
2015-Apr-01 05:58 248 3 gusting 6 12.8
2015-Apr-01 05:53 260 1 gusting 6 12.8
2015-Apr-01 05:48 255 0 gusting 5 12.2
2015-Apr-01 05:43 264 0 gusting 5 12.2
2015-Apr-01 05:39 284 2 gusting 6 12.2
2015-Apr-01 05:33 294 2 gusting 6 12.2
2015-Apr-01 05:28 290 3 gusting 7 12.2
2015-Apr-01 05:23 332 2 gusting 7 12.2
2015-Apr-01 05:18 263 2 gusting 6 12.2
2015-Apr-01 05:14 244 1 gusting 6 12.2
2015-Apr-01 05:09 256 12.2
2015-Apr-01 05:03 242 0 gusting 2 12.2
2015-Apr-01 04:59 242 12.2
2015-Apr-01 04:53 259 4 gusting 6 12.2
2015-Apr-01 04:48 248 1 gusting 6 12.2
2015-Apr-01 04:43 238 2 gusting 5 12.2
2015-Apr-01 04:39 267 3 gusting 6 12.2
2015-Apr-01 04:33 242 3 gusting 6 12.2
2015-Apr-01 04:28 295 3 gusting 5 12.2
2015-Apr-01 04:24 285 1 gusting 5 12.2
2015-Apr-01 04:18 241 2 gusting 5 12.2
2015-Apr-01 04:13 283 1 gusting 5 12.2
2015-Apr-01 04:09 238 0 gusting 3 12.2
2015-Apr-01 04:03 238 12.2
2015-Apr-01 03:59 238 12.8
2015-Apr-01 03:53 238 1 gusting 4 12.8
2015-Apr-01 03:48 238 12.8
2015-Apr-01 03:43 238 12.8
2015-Apr-01 03:39 238 12.8
2015-Apr-01 03:33 238 12.8
2015-Apr-01 03:28 238 0 gusting 3 13.3
2015-Apr-01 03:23 238 0 gusting 1 13.3
2015-Apr-01 03:19 238 13.3
2015-Apr-01 03:13 238 0 gusting 1 13.3
2015-Apr-01 03:09 238 13.3
2015-Apr-01 03:03 238 2 gusting 4 13.3
2015-Apr-01 02:59 236 3 gusting 6 13.9
2015-Apr-01 02:53 245 4 gusting 6 13.9
2015-Apr-01 02:48 254 2 gusting 7 13.9
2015-Apr-01 02:43 266 2 gusting 7 13.9
2015-Apr-01 02:38 285 2 gusting 6 13.9
2015-Apr-01 02:34 296 1 gusting 5 13.9
2015-Apr-01 02:29 286 1 gusting 5 13.9
2015-Apr-01 02:23 286 1 gusting 5 13.9
2015-Apr-01 02:19 248 2 gusting 5 14.4
2015-Apr-01 02:14 248 1 gusting 4 14.4
2015-Apr-01 02:09 248 2 gusting 4 14.4
2015-Apr-01 02:04 248 2 gusting 4 14.4
2015-Apr-01 01:59 248 0 gusting 5 14.4
2015-Apr-01 01:53 248 1 gusting 5 14.4
2015-Apr-01 01:49 286 2 gusting 6 14.4
2015-Apr-01 01:43 308 3 gusting 6 14.4
2015-Apr-01 01:38 281 3 gusting 6 14.4
2015-Apr-01 01:33 292 3 gusting 7 14.4
2015-Apr-01 01:29 273 3 gusting 7 14.4
2015-Apr-01 01:23 252 4 gusting 8 14.4
2015-Apr-01 01:18 273 5 gusting 8 14.4
2015-Apr-01 01:13 296 3 gusting 8 13.9
2015-Apr-01 01:08 295 5 gusting 9 13.9
2015-Apr-01 01:04 299 3 gusting 9 13.9
2015-Apr-01 00:58 309 4 gusting 9 14.4
2015-Apr-01 00:53 321 5 gusting 7 14.4
2015-Apr-01 00:48 303 4 gusting 8 15.0
2015-Apr-01 00:38 285 3 gusting 10 15.6
2015-Apr-01 00:34 299 5 gusting 13 16.1
2015-Apr-01 00:28 276 7 gusting 13 16.7
2015-Apr-01 00:23 320 6 gusting 12 17.2
2015-Apr-01 00:18 229 6 gusting 10 17.2
2015-Apr-01 00:13 221 4 gusting 11 17.8
2015-Apr-01 00:08 224 5 gusting 11 17.8
2015-Apr-01 00:03 232 5 gusting 13 17.8
2015-Mar-31 23:58 221 6 gusting 13 17.8
2015-Mar-31 23:54 225 7 gusting 13 17.8
2015-Mar-31 23:48 215 8 gusting 13 17.8
2015-Mar-31 23:43 261 6 gusting 13 17.8
2015-Mar-31 23:38 210 7 gusting 16 18.3
2015-Mar-31 23:33 241 8 gusting 16 18.3
2015-Mar-31 23:29 192 6 gusting 15 18.3
2015-Mar-31 23:23 243 7 gusting 17 18.3
2015-Mar-31 23:18 233 8 gusting 17 18.3
2015-Mar-31 23:13 215 7 gusting 16 18.3
2015-Mar-31 23:09 233 6 gusting 13 18.3
2015-Mar-31 23:03 216 7 gusting 13 18.3
2015-Mar-31 22:54 223 8 gusting 15 18.9
2015-Mar-31 22:48 223 6 gusting 16 18.9
2015-Mar-31 22:44 235 7 gusting 16 18.9
2015-Mar-31 22:39 200 7 gusting 11 18.9
2015-Mar-31 22:33 219 6 gusting 12 19.4
2015-Mar-31 22:24 225 7 gusting 13 19.4
2015-Mar-31 22:19 217 7 gusting 16 19.4
2015-Mar-31 22:13 235 7 gusting 18 19.4
2015-Mar-31 21:59 226 6 gusting 13 19.4
2015-Mar-31 21:49 215 5 gusting 12 19.4
2015-Mar-31 21:39 253 6 gusting 15 19.4
2015-Mar-31 21:29 230 6 gusting 13 20.0
2015-Mar-31 21:18 257 11 gusting 17 20.0
2015-Mar-31 21:03 229 6 gusting 13 19.4
2015-Mar-31 20:33 268 4 gusting 8 19.4
2015-Mar-31 20:19 209 7 gusting 16 19.4
2015-Mar-31 19:48 230 10 gusting 19 20.0
2015-Mar-31 19:33 223 10 gusting 20 20.0
2015-Mar-31 19:19 219 9 gusting 19 20.0
2015-Mar-31 19:03 213 7 gusting 18 20.0
2015-Mar-31 18:48 245 11 gusting 22 20.6
2015-Mar-31 18:33 219 12 gusting 24 20.6
2015-Mar-31 18:19 229 9 gusting 18 21.1
2015-Mar-31 18:04 189 9 gusting 19 21.1
2015-Mar-31 17:48 197 8 gusting 16 21.7
2015-Mar-31 17:28 216 11 gusting 22 22.2
2015-Mar-31 17:13 213 9 gusting 15 22.2
2015-Mar-31 16:24 186 12 gusting 21 23.3
2015-Mar-31 16:08 200 10 gusting 22 23.9
2015-Mar-31 15:58 243 13 gusting 24 23.9
2015-Mar-31 15:48 250 6 gusting 17 23.9
2015-Mar-31 15:38 200 6 gusting 16 23.9
2015-Mar-31 15:28 219 7 gusting 17 23.9
2015-Mar-31 14:28 235 23.9
2015-Mar-31 14:18 234 23.9
2015-Mar-31 14:09 192 23.9
2015-Mar-31 13:58 198 23.9
2015-Mar-31 13:48 205 23.9
2015-Mar-31 13:29 227 23.3
2015-Mar-31 13:18 244 23.9
2015-Mar-31 13:08 242 23.9
2015-Mar-31 12:58 207 23.3
2015-Mar-31 12:49 228 23.9
2015-Mar-31 12:28 204 23.9
2015-Mar-31 12:19 250 23.3
2015-Mar-31 12:08 051 22.8
2015-Mar-31 11:59 014 21.7
2015-Mar-31 11:48 018 22.2
2015-Mar-31 11:38 315 22.8
2015-Mar-31 11:28 244 23.3
2015-Mar-31 11:18 234 23.9
2015-Mar-31 11:08 243 23.9
2015-Mar-31 10:58 227 23.9
2015-Mar-31 10:48 244 23.9
2015-Mar-31 10:39 213 23.3
2015-Mar-31 10:29 263 22.2
2015-Mar-31 10:19 166 22.8
2015-Mar-31 10:08 157 21.7
2015-Mar-31 09:58 221 21.1
2015-Mar-31 09:48 209 21.1
2015-Mar-31 09:38 161 21.1
2015-Mar-31 09:29 169 20.6
2015-Mar-31 09:18 213 20.0
2015-Mar-31 09:08 173 19.4
2015-Mar-31 08:58 209 18.9
2015-Mar-31 08:49 212 18.9
2015-Mar-31 08:38 161 18.3
2015-Mar-31 08:29 186 17.8
2015-Mar-31 08:23 228 17.8
2015-Mar-31 08:14 227 17.8
2015-Mar-31 08:04 217 17.2
2015-Mar-31 07:54 196 16.7
2015-Mar-31 07:43 182 15.6
2015-Mar-31 07:33 211 15.6
2015-Mar-31 07:23 213 15.0
2015-Mar-31 07:14 213 15.0
2015-Mar-31 07:03 196 14.4
2015-Mar-31 06:53 196 14.4
2015-Mar-31 06:44 177 13.3
2015-Mar-31 06:33 143 12.8
2015-Mar-31 06:24 143 12.2
2015-Mar-31 06:13 140 11.7
2015-Mar-31 06:04 056 11.7
2015-Mar-31 05:53 056 11.7
2015-Mar-31 05:43 056 11.7
2015-Mar-31 05:29 046 12.2
2015-Mar-31 05:19 101 11.7
2015-Mar-31 05:14 107 11.7
2015-Mar-31 04:38 175 12.2
2015-Mar-31 04:18 190 12.2
2015-Mar-31 03:58 184 12.8
2015-Mar-31 03:49 200 12.8
2015-Mar-31 03:44 200 12.8
2015-Mar-31 03:38 200 12.8
2015-Mar-31 03:33 209 13.3
2015-Mar-31 03:28 240 13.3
2015-Mar-31 03:18 183 13.3
2015-Mar-31 03:13 205 13.3
2015-Mar-31 03:08 205 13.3
2015-Mar-31 03:03 194 12.8
2015-Mar-31 02:58 200 12.8
2015-Mar-31 02:53 212 13.3
2015-Mar-31 02:48 212 13.3
2015-Mar-31 02:43 212 13.3
2015-Mar-31 02:38 212 13.3
2015-Mar-31 02:33 212 13.9
2015-Mar-31 02:28 212 13.9
2015-Mar-31 02:23 212 13.9
2015-Mar-31 02:18 212 13.9
2015-Mar-31 02:13 212 13.9
2015-Mar-31 02:09 217 13.9
2015-Mar-31 02:04 211 13.9
2015-Mar-31 01:59 221 14.4
2015-Mar-31 01:53 220 14.4
2015-Mar-31 01:48 232 14.4
2015-Mar-31 01:43 237 14.4
2015-Mar-31 01:38 244 14.4
2015-Mar-31 01:34 260 14.4
2015-Mar-31 01:29 254 14.4
2015-Mar-31 01:24 241 14.4
2015-Mar-31 01:18 247 14.4
2015-Mar-31 01:13 245 14.4
2015-Mar-31 01:08 275 14.4
2015-Mar-31 01:03 240 14.4
2015-Mar-31 00:59 244 14.4
2015-Mar-31 00:54 232 14.4
2015-Mar-31 00:49 219 15.0
2015-Mar-31 00:44 242 15.0
2015-Mar-31 00:39 225 15.0
2015-Mar-31 00:33 229 15.0
2015-Mar-31 00:29 234 15.0
2015-Mar-31 00:23 252 15.0
2015-Mar-31 00:19 260 15.0
2015-Mar-31 00:14 256 15.0
2015-Mar-31 00:04 268 15.0
2015-Mar-30 23:53 249 15.0
2015-Mar-30 23:44 239 15.0
2015-Mar-30 23:38 269 15.0
2015-Mar-30 23:29 261 15.0
2015-Mar-30 23:18 275 15.6
2015-Mar-30 23:13 286 15.6
2015-Mar-30 22:58 273 15.0
2015-Mar-30 22:53 306 15.0
2015-Mar-30 22:49 309 15.0
2015-Mar-30 22:44 285 15.0
2015-Mar-30 22:23 317 15.0
2015-Mar-30 22:04 344 16.7
2015-Mar-30 21:43 286 18.3
2015-Mar-30 21:24 268 18.3
2015-Mar-30 21:13 267 18.3
2015-Mar-30 21:03 267 17.8
2015-Mar-30 20:53 329 17.2
2015-Mar-30 20:34 177 16.1
2015-Mar-30 20:24 177 16.1
2015-Mar-30 20:14 177 16.1
2015-Mar-30 20:03 177 16.1
2015-Mar-30 19:53 182 16.1
2015-Mar-30 19:43 184 16.1
2015-Mar-30 19:33 185 16.1
2015-Mar-30 19:24 194 16.1
2015-Mar-30 19:14 177 16.7
2015-Mar-30 19:03 176 16.7
2015-Mar-30 18:43 183 17.2
2015-Mar-30 18:33 180 17.2
2015-Mar-30 18:23 189 17.8
2015-Mar-30 17:54 228 18.9
2015-Mar-30 17:43 229 19.4
2015-Mar-30 17:23 238 20.0
2015-Mar-30 17:13 238 20.0
2015-Mar-30 17:04 242 20.0
2015-Mar-30 16:53 202 20.6
2015-Mar-30 16:43 019 20.6
2015-Mar-30 16:33 019 20.6
2015-Mar-30 16:23 255 20.6
2015-Mar-30 16:13 022 20.6
2015-Mar-30 16:03 076 20.6
2015-Mar-30 15:53 017 20.6
2015-Mar-30 15:43 019 21.1
2015-Mar-30 15:33 028 21.1
2015-Mar-30 15:24 351 22.2
2015-Mar-30 15:09 202 21.7
2015-Mar-30 14:58 217 21.7
2015-Mar-30 14:53 225 21.7
2015-Mar-30 14:48 190 21.7
2015-Mar-30 14:43 217 21.7
2015-Mar-30 14:39 211 21.7
2015-Mar-30 14:33 238 22.2
2015-Mar-30 14:28 281 22.2
2015-Mar-30 14:23 223 22.2
2015-Mar-30 14:18 254 22.2
2015-Mar-30 14:13 239 22.2
2015-Mar-30 14:08 319 22.2
2015-Mar-30 14:04 271 22.2
2015-Mar-30 13:58 194 21.7
2015-Mar-30 13:54 234 21.7
2015-Mar-30 13:48 205 21.7
2015-Mar-30 13:43 248 22.2
2015-Mar-30 13:38 182 21.7
2015-Mar-30 13:34 229 21.7
2015-Mar-30 13:28 240 22.2
2015-Mar-30 13:23 252 21.7
2015-Mar-30 13:18 199 21.1
2015-Mar-30 13:08 240 22.2
2015-Mar-30 13:03 234 22.2
2015-Mar-30 12:58 259 21.7
2015-Mar-30 12:53 194 21.7
2015-Mar-30 12:48 245 22.2
2015-Mar-30 12:43 269 22.2
2015-Mar-30 12:39 209 21.7
2015-Mar-30 12:33 301 22.2
2015-Mar-30 12:28 178 21.7
2015-Mar-30 12:23 204 21.7
2015-Mar-30 12:19 192 21.7
2015-Mar-30 12:14 200 21.1
2015-Mar-30 12:09 208 21.1
2015-Mar-30 12:04 173 21.1
2015-Mar-30 11:54 221 21.7
2015-Mar-30 11:49 228 21.7
2015-Mar-30 11:39 229 21.1
2015-Mar-30 11:34 244 21.1
2015-Mar-30 11:29 186 21.1
2015-Mar-30 11:24 239 21.1
2015-Mar-30 11:19 207 21.1
2015-Mar-30 11:14 213 21.1
2015-Mar-30 11:09 233 21.1
2015-Mar-30 11:04 218 21.1
2015-Mar-30 10:59 207 20.6
2015-Mar-30 10:54 229 20.6
2015-Mar-30 10:49 221 20.6
2015-Mar-30 10:44 244 20.0
2015-Mar-30 10:39 198 20.0
2015-Mar-30 10:34 208 20.0
2015-Mar-30 10:29 174 19.4
2015-Mar-30 10:24 206 19.4
2015-Mar-30 10:19 173 19.4
2015-Mar-30 10:13 179 19.4
2015-Mar-30 10:09 211 19.4
2015-Mar-30 10:04 187 18.9
2015-Mar-30 09:59 214 19.4
2015-Mar-30 09:54 190 19.4
2015-Mar-30 09:49 211 18.9
2015-Mar-30 09:44 196 18.9
2015-Mar-30 09:39 234 18.9
2015-Mar-30 09:34 163 18.9
2015-Mar-30 09:29 213 18.9
2015-Mar-30 09:24 207 18.3
2015-Mar-30 09:19 224 18.3
2015-Mar-30 09:14 236 18.9
2015-Mar-30 09:09 211 18.3
2015-Mar-30 09:04 205 18.3
2015-Mar-30 08:59 234 18.3
2015-Mar-30 08:54 242 18.3
2015-Mar-30 08:49 273 17.8
2015-Mar-30 08:44 227 17.8
2015-Mar-30 08:39 248 17.8
2015-Mar-30 08:34 207 17.2
2015-Mar-30 08:29 195 17.2
2015-Mar-30 08:24 229 17.2
2015-Mar-30 08:19 202 17.2
2015-Mar-30 08:14 210 16.7
2015-Mar-30 08:09 178 16.7
2015-Mar-30 08:04 223 16.1